STARLINK-32769, 62602

Orbit data source: Space-Track

STARLINK-32769, 62602 is a payload satellite owned by SpaceX/Seattle (US) in LEO that was launched on Mon, 13 Jan 2025 UTC via an FALCON 9 launch vehicle from the Air Force Eastern Test Range (AFETR). Payloads include a variety of satellites, spacecraft, and rockets equipped with specific instruments for various scientific and technological missions. These include communications satellites like Starlink; space stations such as the ISS; scientific satellites like the Hubble; Earth observation satellites from companies like Planet Labs, Umbra, and HawkEye 360; GPS; miniature CubeSats for education and research; and military/defense satellites.

Loading next visibility...
STARLINK-32769 details
Identifier
62602, 2025-008R
Orbit
LEO
Last TLE update14 hours ago
Origin
Flag of USSpaceX/Seattle (US)
ManufacturerSpaceX/Seattle
MissionOperational spacecraft
Bus & MotorSTARLINK V2M, Unknown motor
Mass730 kg wet, ~700 kg dry
Launch date (UTC)
2025-01-13 (3 weeks ago)
Launch vehicle
FALCON 9
Launch site
Air Force Eastern Test Range (AFETR)
Object type
Payload
Rocket body
Debris
Shape & HBRUnknown
Radar Cross SectionLarge (>1 m²)

Expand to show TLE details & history

TLE from 14 hours ago
0 STARLINK-32769
1 62602U 25008R   25035.58335648 -.00033442  00000-0 -56622-3 0  9990
2 62602  43.0005   9.4604 0001580 277.4558  17.1502 15.50599832  4732
Epoch: 2025-02-04T14:00Z
Definitive object data (Epoch: 2025-02-04T14:00:01.999Z)
Latitude-38.49169°
Longitude-33.5278°
Altitude425.358 km
Speed7.657 km/s
True Right ascension20h 45m 52s
True Declination-38° 18' 58"
Sunlit
Object was in daylight at TLE epoch
Visualization TLE readout
Latitude-34.21175°
Longitude-25.40845°
Altitude423.767 km
Speed7.658 km/s
Apparent Right ascension19h 46m 11s
Apparent Declination-39° 29' 25"
Sunlit
Object is in daylight
Visualization observer readout
Local Sidereal Time05:59:15
Azimuth262.533° W
Elevation-69.505°
Doppler factor1
Orbital elements
Apogee altitude418.012 km
Perigee altitude415.864 km
Semi-major axis6,795.075 km
Eccentricity0.000158
Inclination43.0005°
RAAN9.4604°
Arg. of periapsis277.4558°
True anomaly17.15554°
Mean anomaly17.1502°
Eccentric anomaly17.15287°
Mean motion3.87482 °/min
BSTAR-0.00056622
Orbital period92.91 mins
Loading maneuver chart data...
Loading historical data...
Loading historical data...
Loading historical data...
Loading historical data...
Loading historical data...
Loading historical data...
Loading historical data...

STARLINK-32769 Visibility forecast

Observer location: undefined°, undefined

Span
Click to sort rows by Start time (UTC) header in descending order
Start Az.
Max El. time (UTC)
Max El. Az.
Max El.
End time (UTC)
End Az.
6 mins2025-02-05 04:32:29.174Z286.963° WNW2025-02-05 04:35:29.174Z356.562° N36.456°2025-02-05 04:38:29.174Z77.1° E
4 mins2025-02-05 06:11:29.174Z285.503° WNW2025-02-05 06:13:29.174Z128.862° SE43.004°2025-02-05 06:15:29.174Z113.085° SE
5 mins2025-02-06 02:06:29.174Z249.039° W2025-02-06 02:08:29.174Z81.6° E43.98°2025-02-06 02:11:29.174Z72.244° E
4 mins2025-02-06 03:44:29.174Z300.397° NW2025-02-06 03:45:29.174Z336.673° NNW35.423°2025-02-06 03:48:29.174Z71.286° E
|